Dades meteomassalio
Diari Summary for Maig 24, 2017 Units:  Metric    English   Both
« Previous Day
Next Day »
Diari Semanal Mensual Anual Personalitzat
  Maxima: Minima: Mijana:
Temperatura: -17.8 °C -10.4 °C -4.9 °C
Rosada: -17.8 °C -14.2 °C -12.3 °C
Humitat: Humidity % 24 % 47 %
Velocitat del vent: 0 km/h 0 km/h 10.5 km/h
Racha vent: 0 km/h - -
Vent:- - SE
Pressio: 0 hPa 34395 hPa -
Pluja: 0 mm    
Historical Graphs
 
 
Tabular Data for Maig 24, 2017
Time Temperature Dew Point Pressure Wind Wind Speed Wind Gust Humidity Rainfall Rate (Hourly) solar Conditions
-17.8 °C -17.8 °C 0 hPa Calm     Humidity % 0 mm SolarRadiationWatts/m^2 W/m2 Conditions
00:04 -6.4 °C -11.5 °C 34520.3 hPa Calm     56 % 0 mm 0.0 W/m2 CLR
00:09 -6.6 °C -11.4 °C 34520.3 hPa Calm     57 % 0 mm 0.0 W/m2 CLR
00:14 -6.8 °C -11.5 °C 34520.3 hPa Calm     58 % 0 mm 0.0 W/m2 CLR
00:19 -6.9 °C -11.5 °C 34520.3 hPa Calm     59 % 0 mm 0.0 W/m2 CLR
00:24 -7 °C -11.4 °C 34520.3 hPa Calm     60 % 0 mm 0.0 W/m2 CLR
00:29 -7.2 °C -11.4 °C 34520.3 hPa Calm     61 % 0 mm 0.0 W/m2 CLR
00:34 -7.3 °C -11.6 °C 34520.3 hPa Calm     61 % 0 mm 0.0 W/m2 CLR
00:39 -7.4 °C -11.6 °C 34520.3 hPa Calm     62 % 0 mm 0.0 W/m2 CLR
00:44 -7.5 °C -11.6 °C 34520.3 hPa Calm     62 % 0 mm 0.0 W/m2 CLR
00:49 -7.6 °C -11.7 °C 34520.3 hPa Calm     62 % 0 mm 0.0 W/m2 CLR
00:54 -7.5 °C -11.6 °C 34520.3 hPa SW 6 km/h 6 km/h 62 % 0 mm 0.0 W/m2 CLR
01:00 -7.3 °C -11.6 °C 34520.3 hPa SW 9 km/h 9 km/h 61 % 0 mm 0.0 W/m2 CLR
01:05 -7.4 °C -11.6 °C 34520.3 hPa Calm     61 % 0 mm 0.0 W/m2 CLR
01:10 -7.6 °C -11.6 °C 34533.8 hPa Calm     63 % 0 mm 0.0 W/m2 CLR
01:15 -7.9 °C -11.7 °C 34533.8 hPa Calm     64 % 0 mm 0.0 W/m2 CLR
01:20 -8.1 °C -11.8 °C 34520.3 hPa Calm     65 % 0 mm 0.0 W/m2 CLR
01:25 -8.1 °C -11.7 °C 34520.3 hPa SW 6 km/h 6 km/h 66 % 0 mm 0.0 W/m2 CLR
01:30 -8.1 °C -11.7 °C 34520.3 hPa Calm     66 % 0 mm 0.0 W/m2 CLR
01:35 -8.2 °C -11.7 °C 34520.3 hPa Calm     66 % 0 mm 0.0 W/m2 CLR
01:40 -8.2 °C -11.7 °C 34533.8 hPa Calm     67 % 0 mm 0.0 W/m2 CLR
01:45 -8.3 °C -11.8 °C 34533.8 hPa Calm     67 % 0 mm 0.0 W/m2 CLR
01:50 -8.4 °C -11.7 °C 34520.3 hPa Calm     68 % 0 mm 0.0 W/m2 CLR
01:55 -8.5 °C -11.8 °C 34520.3 hPa Calm     68 % 0 mm 0.0 W/m2 CLR
02:00 -8.5 °C -11.8 °C 34520.3 hPa Calm     68 % 0 mm 0.0 W/m2 CLR
02:05 -8.6 °C -11.8 °C 34520.3 hPa Calm     68 % 0 mm 0.0 W/m2 CLR
02:10 -8.6 °C -11.9 °C 34520.3 hPa Calm     68 % 0 mm 0.0 W/m2 CLR
02:15 -8.7 °C -11.8 °C 34520.3 hPa Calm     69 % 0 mm 0.0 W/m2 CLR
02:20 -8.7 °C -11.9 °C 34520.3 hPa Calm     69 % 0 mm 0.0 W/m2 CLR
02:25 -8.8 °C -11.9 °C 34520.3 hPa Calm     69 % 0 mm 0.0 W/m2 CLR
02:30 -8.8 °C -11.9 °C 34520.3 hPa Calm     70 % 0 mm 0.0 W/m2 CLR
02:35 -8.9 °C -11.9 °C 34520.3 hPa Calm     70 % 0 mm 0.0 W/m2 CLR
02:40 -9 °C -11.9 °C 34520.3 hPa Calm     71 % 0 mm 0.0 W/m2 CLR
02:45 -9 °C -11.9 °C 34510.1 hPa Calm     71 % 0 mm 0.0 W/m2 CLR
02:50 -9.1 °C -11.8 °C 34520.3 hPa Calm     72 % 0 mm 0.0 W/m2 CLR
02:55 -9.1 °C -12 °C 34520.3 hPa Calm     71 % 0 mm 0.0 W/m2 CLR
03:00 -9.1 °C -11.9 °C 34520.3 hPa Calm     72 % 0 mm 0.0 W/m2 CLR
03:10 -9.2 °C -12 °C 34520.3 hPa Calm     72 % 0 mm 0.0 W/m2 CLR
03:15 -9.2 °C -12 °C 34520.3 hPa Calm     72 % 0 mm 0.0 W/m2 CLR
03:20 -9.3 °C -12 °C 34520.3 hPa Calm     73 % 0 mm 0.0 W/m2 CLR
03:25 -9.3 °C -12.1 °C 34520.3 hPa Calm     73 % 0 mm 0.0 W/m2 CLR
03:30 -9.4 °C -12.1 °C 34520.3 hPa Calm     73 % 0 mm 0.0 W/m2 CLR
03:35 -9.4 °C -12.1 °C 34520.3 hPa Calm     73 % 0 mm 0.0 W/m2 CLR
03:40 -9.5 °C -12.1 °C 34520.3 hPa Calm     74 % 0 mm 0.0 W/m2 CLR
03:45 -9.6 °C -12.1 °C 34520.3 hPa Calm     74 % 0 mm 0.0 W/m2 CLR
03:50 -9.6 °C -12.2 °C 34510.1 hPa Calm     74 % 0 mm 0.0 W/m2 CLR
03:55 -9.7 °C -12.1 °C 34520.3 hPa Calm     75 % 0 mm 0.0 W/m2 CLR
04:00 -9.7 °C -12.2 °C 34520.3 hPa Calm     75 % 0 mm 0.0 W/m2 CLR
04:05 -9.7 °C -12.2 °C 34520.3 hPa Calm     75 % 0 mm 0.0 W/m2 CLR
04:10 -9.7 °C -12.1 °C 34520.3 hPa Calm     75 % 0 mm 0.0 W/m2 CLR
04:15 -9.6 °C -12.1 °C 34520.3 hPa Calm     75 % 0 mm 0.0 W/m2 CLR
04:20 -9.6 °C -12.1 °C 34520.3 hPa Calm     74 % 0 mm 0.0 W/m2 CLR
04:25 -9.4 °C -12.1 °C 34520.3 hPa Calm     73 % 0 mm 0.0 W/m2 CLR
04:30 -9.3 °C -12.1 °C 34520.3 hPa Calm     72 % 0 mm 0.0 W/m2 CLR
04:35 -9.3 °C -12.1 °C 34520.3 hPa Calm     72 % 0 mm 0.0 W/m2 CLR
04:40 -9.3 °C -12.2 °C 34520.3 hPa Calm     71 % 0 mm 0.0 W/m2 CLR
04:45 -9.3 °C -12.2 °C 34520.3 hPa Calm     71 % 0 mm 0.0 W/m2 CLR
04:50 -9.3 °C -12.1 °C 34520.3 hPa Calm     72 % 0 mm 0.0 W/m2 CLR
04:55 -9.4 °C -12.2 °C 34520.3 hPa Calm     72 % 0 mm 0.0 W/m2 CLR
05:00 -9.6 °C -12.2 °C 34520.3 hPa Calm     73 % 0 mm 0.0 W/m2 CLR
05:05 -9.7 °C -12.2 °C 34520.3 hPa Calm     74 % 0 mm 0.0 W/m2 CLR
05:10 -9.8 °C -12.3 °C 34520.3 hPa Calm     74 % 0 mm 0.0 W/m2 CLR
05:15 -9.8 °C -12.3 °C 34520.3 hPa Calm     75 % 0 mm 0.0 W/m2 CLR
05:20 -9.9 °C -12.3 °C 34520.3 hPa Calm     75 % 0 mm 0.0 W/m2 CLR
05:25 -9.9 °C -12.3 °C 34533.8 hPa Calm     75 % 0 mm 0.0 W/m2 CLR
05:30 -9.9 °C -12.4 °C 34520.3 hPa Calm     75 % 0 mm 0.0 W/m2 CLR
05:35 -10.1 °C -12.3 °C 34533.8 hPa Calm     76 % 0 mm 0.0 W/m2 CLR
05:40 -10.1 °C -12.4 °C 34533.8 hPa Calm     76 % 0 mm 0.0 W/m2 CLR
05:45 -10.1 °C -12.4 °C 34533.8 hPa Calm     76 % 0 mm 0.0 W/m2 CLR
05:50 -10 °C -12.4 °C 34533.8 hPa Calm     75 % 0 mm 0.0 W/m2 CLR
05:55 -10 °C -12.4 °C 34533.8 hPa Calm     75 % 0 mm 0.0 W/m2 CLR
06:00 -10.1 °C -12.4 °C 34533.8 hPa Calm     76 % 0 mm 0.0 W/m2 CLR
06:05 -10.2 °C -12.5 °C 34533.8 hPa Calm     76 % 0 mm 0.0 W/m2 CLR
06:10 -10.2 °C -12.6 °C 34533.8 hPa Calm     76 % 0 mm 0.0 W/m2 CLR
06:15 -10.3 °C -12.5 °C 34533.8 hPa Calm     77 % 0 mm 0.0 W/m2 CLR
06:20 -10.3 °C -12.6 °C 34533.8 hPa Calm     77 % 0 mm 0.0 W/m2 CLR
06:25 -10.3 °C -12.5 °C 34533.8 hPa Calm     77 % 0 mm 0.0 W/m2 OVC
06:30 -10.3 °C -12.6 °C 34533.8 hPa Calm     76 % 0 mm 0.0 W/m2 OVC
06:35 -10.3 °C -12.7 °C 34533.8 hPa Calm     76 % 0 mm 5.0 W/m2 OVC
06:40 -10.3 °C -12.7 °C 34533.8 hPa Calm     76 % 0 mm 7.0 W/m2 BKN
06:45 -10.4 °C -12.7 °C 34533.8 hPa Calm     76 % 0 mm 9.0 W/m2 BKN
06:50 -10.4 °C -12.7 °C 34533.8 hPa Calm     76 % 0 mm 12.0 W/m2 BKN
06:56 -10.4 °C -12.7 °C 34533.8 hPa Calm     76 % 0 mm 16.0 W/m2 BKN
07:01 -10.4 °C -12.7 °C 34544 hPa Calm     76 % 0 mm 18.0 W/m2 BKN
07:06 -10.4 °C -12.7 °C 34544 hPa Calm     76 % 0 mm 21.0 W/m2 BKN
07:11 -10.4 °C -12.6 °C 34544 hPa Calm     77 % 0 mm 28.0 W/m2 BKN
07:16 -10.3 °C -12.7 °C 34544 hPa Calm     76 % 0 mm 37.0 W/m2 BKN
07:21 -10.3 °C -12.6 °C 34544 hPa Calm     76 % 0 mm 47.0 W/m2 SCT
07:26 -10.2 °C -12.6 °C 34544 hPa Calm     75 % 0 mm 56.0 W/m2 SCT
07:31 -10.1 °C -12.6 °C 34544 hPa Calm     74 % 0 mm 70.0 W/m2 FEW
07:36 -9.9 °C -12.5 °C 34544 hPa Calm     74 % 0 mm 83.0 W/m2 FEW
07:41 -9.8 °C -12.4 °C 34554.1 hPa Calm     73 % 0 mm 95.0 W/m2 FEW
07:46 -9.7 °C -12.4 °C 34554.1 hPa Calm     72 % 0 mm 109.0 W/m2 CLR
07:51 -9.5 °C -12.3 °C 34554.1 hPa Calm     72 % 0 mm 123.0 W/m2 CLR
07:56 -9.2 °C -12.3 °C 34554.1 hPa Calm     70 % 0 mm 144.0 W/m2 CLR
08:01 -9 °C -12.1 °C 34554.1 hPa Calm     69 % 0 mm 158.0 W/m2 CLR
08:06 -8.8 °C -12.1 °C 34554.1 hPa Calm     68 % 0 mm 174.0 W/m2 CLR
08:11 -8.5 °C -12.1 °C 34554.1 hPa Calm     66 % 0 mm 193.0 W/m2 CLR
08:16 -8.3 °C -12 °C 34554.1 hPa Calm     65 % 0 mm 213.0 W/m2 CLR
08:21 -8.1 °C -12.1 °C 34554.1 hPa Calm     63 % 0 mm 229.0 W/m2 CLR
08:26 -7.9 °C -12.1 °C 34554.1 hPa Calm     62 % 0 mm 243.0 W/m2 CLR
08:31 -7.7 °C -11.8 °C 34554.1 hPa Calm     62 % 0 mm 257.0 W/m2 CLR
08:36 -7.4 °C -11.9 °C 34554.1 hPa Calm     60 % 0 mm 274.0 W/m2 CLR
08:41 -7.3 °C -11.7 °C 34554.1 hPa Calm     60 % 0 mm 288.0 W/m2 CLR
08:46 -7.2 °C -11.8 °C 34554.1 hPa Calm     59 % 0 mm 304.0 W/m2 CLR
08:51 -7 °C -11.6 °C 34554.1 hPa Calm     59 % 0 mm 320.0 W/m2 CLR
08:56 -6.8 °C -11.4 °C 34554.1 hPa Calm     59 % 0 mm 332.0 W/m2 CLR
09:01 -6.7 °C -11.4 °C 34554.1 hPa Calm     58 % 0 mm 352.0 W/m2 CLR
09:06 -6.6 °C -11.4 °C 34554.1 hPa Calm     57 % 0 mm 366.0 W/m2 CLR
09:11 -6.3 °C -11.4 °C 34554.1 hPa Calm     56 % 0 mm 380.0 W/m2 CLR
09:16 -6.1 °C -11.2 °C 34554.1 hPa Calm     56 % 0 mm 392.0 W/m2 CLR
09:21 -5.9 °C -11.3 °C 34554.1 hPa Calm     54 % 0 mm 276.0 W/m2 CLR
09:26 -5.7 °C -11.1 °C 34544 hPa Calm     54 % 0 mm 475.0 W/m2 CLR
09:31 -5.3 °C -10.8 °C 34554.1 hPa Calm     54 % 0 mm 510.0 W/m2 CLR
09:36 -5.1 °C -10.8 °C 34554.1 hPa Calm     52 % 0 mm 336.0 W/m2 CLR
09:41 -4.9 °C -10.9 °C 34544 hPa Calm     51 % 0 mm 471.0 W/m2 CLR
09:46 -4.7 °C -10.7 °C 34554.1 hPa Calm     51 % 0 mm 712.0 W/m2 CLR
09:51 -4.5 °C -10.8 °C 34554.1 hPa Calm     49 % 0 mm 654.0 W/m2 CLR
09:56 -4.4 °C -10.9 °C 34544 hPa Calm     48 % 0 mm 434.0 W/m2 CLR
10:01 -4.4 °C -10.9 °C 34544 hPa Calm     48 % 0 mm 294.0 W/m2 CLR
10:06 -4.3 °C -10.8 °C 34544 hPa NNW 15.6 km/h 15.6 km/h 48 % 0 mm 292.0 W/m2 CLR
10:11 -4.4 °C -10.9 °C 34544 hPa NNW 11.9 km/h 11.9 km/h 48 % 0 mm 281.0 W/m2 CLR
10:16 -4.4 °C -11.1 °C 34544 hPa NW 9 km/h 9 km/h 47 % 0 mm 468.0 W/m2 CLR
10:21 -4.4 °C -10.9 °C 34544 hPa Calm     48 % 0 mm 657.0 W/m2 CLR
10:26 -4.3 °C -11 °C 34544 hPa Calm     47 % 0 mm 615.0 W/m2 CLR
10:31 -4.2 °C -11.1 °C 34533.8 hPa Calm     46 % 0 mm 624.0 W/m2 CLR
10:36 -3.9 °C -11 °C 34533.8 hPa Calm     45 % 0 mm 643.0 W/m2 CLR
10:41 -3.7 °C -11.6 °C 34533.8 hPa NNE 3.1 km/h 3.1 km/h 41 % 0 mm 654.0 W/m2 CLR
10:46 -3.6 °C -11.3 °C 34533.8 hPa NNE 11.9 km/h 11.9 km/h 42 % 0 mm 668.0 W/m2 CLR
10:51 -3.4 °C -11.3 °C 34533.8 hPa North 3.1 km/h 3.1 km/h 41 % 0 mm 679.0 W/m2 CLR
10:56 -3.4 °C -11.4 °C 34533.8 hPa NW 2.6 km/h 2.6 km/h 41 % 0 mm 693.0 W/m2 CLR
11:01 -3.4 °C -11.6 °C 34520.3 hPa Calm     40 % 0 mm 705.0 W/m2 CLR
11:06 -3.2 °C -11.6 °C 34533.8 hPa SE 6 km/h 6 km/h 39 % 0 mm 721.0 W/m2 CLR
11:11 -3 °C -11.4 °C 34520.3 hPa Calm     39 % 0 mm 735.0 W/m2 CLR
11:16 -2.9 °C -11.3 °C 34520.3 hPa ENE 9 km/h 9 km/h 39 % 0 mm 744.0 W/m2 CLR
11:22 -2.9 °C -11.7 °C 34520.3 hPa ENE 11.9 km/h 11.9 km/h 37 % 0 mm 758.0 W/m2 CLR
11:27 -2.7 °C -11.3 °C 34520.3 hPa Calm     38 % 0 mm 765.0 W/m2 CLR
11:32 -2.5 °C -11.8 °C 34520.3 hPa East 5.1 km/h 5.1 km/h 35 % 0 mm 779.0 W/m2 CLR
11:37 -2.4 °C -11.8 °C 34520.3 hPa ESE 9 km/h 9 km/h 35 % 0 mm 789.0 W/m2 CLR
11:42 -2.6 °C -11.9 °C 34520.3 hPa Calm     35 % 0 mm 795.0 W/m2 CLR
11:47 -2.4 °C -12.3 °C 34510.1 hPa NE 15 km/h 15 km/h 33 % 0 mm 807.0 W/m2 CLR
11:52 -2.4 °C -12.3 °C 34520.3 hPa NNE 15 km/h 15 km/h 33 % 0 mm 814.0 W/m2 CLR
11:57 -2.4 °C -12.3 °C 34520.3 hPa SE 5.1 km/h 5.1 km/h 33 % 0 mm 826.0 W/m2 CLR
12:02 -2.3 °C -12.4 °C 34520.3 hPa NE 11.9 km/h 11.9 km/h 32 % 0 mm 831.0 W/m2 CLR
12:07 -2.3 °C -12.7 °C 34510.1 hPa Calm     31 % 0 mm 840.0 W/m2 CLR
12:12 -2.3 °C -12.1 °C 34510.1 hPa East 9 km/h 9 km/h 33 % 0 mm 851.0 W/m2 CLR
12:17 -2.1 °C -12.3 °C 34510.1 hPa ENE 15 km/h 15 km/h 32 % 0 mm 858.0 W/m2 CLR
12:22 -1.9 °C -12.1 °C 34510.1 hPa NE 12.9 km/h 12.9 km/h 32 % 0 mm 867.0 W/m2 CLR
12:27 -1.9 °C -12.1 °C 34510.1 hPa ENE 9 km/h 9 km/h 32 % 0 mm 874.0 W/m2 CLR
12:32 -1.8 °C -12 °C 34496.6 hPa ENE 15 km/h 15 km/h 32 % 0 mm 881.0 W/m2 CLR
12:37 -1.8 °C -12.2 °C 34496.6 hPa Calm     31 % 0 mm 882.0 W/m2 CLR
12:42 -1.7 °C -12.2 °C 34496.6 hPa Calm     31 % 0 mm 888.0 W/m2 CLR
12:47 -1.4 °C -11.7 °C 34496.6 hPa NE 12.9 km/h 12.9 km/h 32 % 0 mm 896.0 W/m2 CLR
12:52 -1.3 °C -11.8 °C 34486.4 hPa ENE 26.9 km/h 26.9 km/h 31 % 0 mm 902.0 W/m2 CLR
12:57 -1.3 °C -12.1 °C 34486.4 hPa Calm     30 % 0 mm 907.0 W/m2 CLR
13:02 -1.5 °C -12 °C 34486.4 hPa Calm     31 % 0 mm 907.0 W/m2 CLR
13:07 -1.3 °C -12.1 °C 34486.4 hPa ENE 17.9 km/h 17.9 km/h 30 % 0 mm 912.0 W/m2 CLR
13:12 -1.3 °C -11.8 °C 34486.4 hPa North 11.9 km/h 11.9 km/h 31 % 0 mm 918.0 W/m2 CLR
13:17 -1.3 °C -11.8 °C 34476.3 hPa Calm     31 % 0 mm 918.0 W/m2 CLR
13:22 -1.3 °C -12.4 °C 34476.3 hPa North 15.6 km/h 15.6 km/h 29 % 0 mm 923.0 W/m2 CLR
13:27 -1.4 °C -12.4 °C 34476.3 hPa NNW 9 km/h 9 km/h 29 % 0 mm 926.0 W/m2 CLR
13:32 -1.4 °C -12.7 °C 34476.3 hPa NNE 17.9 km/h 17.9 km/h 28 % 0 mm 928.0 W/m2 CLR
13:37 -1.3 °C -12.7 °C 34476.3 hPa NW 15 km/h 15 km/h 28 % 0 mm 930.0 W/m2 CLR
13:42 -1.3 °C -12.6 °C 34462.7 hPa North 10.3 km/h 10.3 km/h 28 % 0 mm 932.0 W/m2 CLR
13:47 -1.2 °C -12.6 °C 34462.7 hPa NE 20.9 km/h 20.9 km/h 28 % 0 mm 935.0 W/m2 CLR
13:53 -0.9 °C -12.6 °C 34462.7 hPa East 10.3 km/h 10.3 km/h 27 % 0 mm 933.0 W/m2 CLR
13:58 -0.8 °C -12.6 °C 34462.7 hPa ENE 17.9 km/h 17.9 km/h 27 % 0 mm 935.0 W/m2 CLR
14:03 -0.8 °C -12.3 °C 34462.7 hPa East 25.9 km/h 25.9 km/h 28 % 0 mm 932.0 W/m2 CLR
14:08 -1 °C -12.4 °C 34462.7 hPa NNE 15 km/h 15 km/h 28 % 0 mm 932.0 W/m2 CLR
14:13 -0.9 °C -12.3 °C 34462.7 hPa ENE 23.3 km/h 23.3 km/h 28 % 0 mm 932.0 W/m2 CLR
14:18 -0.9 °C -12.3 °C 34462.7 hPa NNW 23.8 km/h 23.8 km/h 28 % 0 mm 930.0 W/m2 CLR
14:23 -0.8 °C -12.5 °C 34452.6 hPa NNE 23.8 km/h   27 % 0 mm 928.0 W/m2 CLR
14:28 -0.7 °C -12.4 °C 34452.6 hPa NNW 26.9 km/h 26.9 km/h 27 % 0 mm 925.0 W/m2 CLR
14:33 -0.7 °C -12.4 °C 34452.6 hPa North 11.9 km/h 11.9 km/h 27 % 0 mm 925.0 W/m2 CLR
14:38 -0.8 °C -12.6 °C 34452.6 hPa Calm     27 % 0 mm 916.0 W/m2 CLR
14:43 -0.7 °C -12.4 °C 34452.6 hPa Calm     27 % 0 mm 909.0 W/m2 CLR
14:48 -0.5 °C -12.6 °C 34452.6 hPa ESE 5.1 km/h 5.1 km/h 26 % 0 mm 914.0 W/m2 CLR
14:53 -0.3 °C -12.4 °C 34442.4 hPa ENE 9 km/h 9 km/h 26 % 0 mm 896.0 W/m2 CLR
14:58 -0.2 °C -12.7 °C 34442.4 hPa ESE 23.8 km/h 23.8 km/h 25 % 0 mm 909.0 W/m2 CLR
15:03 -0.4 °C -12.5 °C 34442.4 hPa ESE 17.9 km/h 17.9 km/h 26 % 0 mm 904.0 W/m2 CLR
15:08 -0.4 °C -12.6 °C 34442.4 hPa SE 9 km/h 9 km/h 26 % 0 mm 895.0 W/m2 CLR
15:13 -0.3 °C -12.4 °C 34428.8 hPa SW 3.1 km/h 3.1 km/h 26 % 0 mm 888.0 W/m2 CLR
15:18 -0.2 °C -12.7 °C 34428.8 hPa SW 10.3 km/h 10.3 km/h 25 % 0 mm 884.0 W/m2 CLR
15:23 -0.2 °C -12.7 °C 34428.8 hPa SSW 15 km/h 15 km/h 25 % 0 mm 877.0 W/m2 CLR
15:28 -0.2 °C -12.7 °C 34428.8 hPa Calm     25 % 0 mm 867.0 W/m2 CLR
15:33 -0.1 °C -12.6 °C 34418.7 hPa NE 9 km/h 9 km/h 25 % 0 mm 858.0 W/m2 CLR
15:38 0.2 °C -12.3 °C 34418.7 hPa ESE 17.9 km/h 17.9 km/h 25 % 0 mm 849.0 W/m2 CLR
15:43 0.1 °C -12.4 °C 34418.7 hPa SE 35.7 km/h 35.7 km/h 25 % 0 mm 844.0 W/m2 CLR
15:48 -0.3 °C -12.4 °C 34418.7 hPa South 35.7 km/h 35.7 km/h 26 % 0 mm 782.0 W/m2 CLR
15:53 -0.3 °C -12.4 °C 34418.7 hPa ENE 23.8 km/h 23.8 km/h 26 % 0 mm 831.0 W/m2 CLR
15:58 -0.2 °C -12.4 °C 34418.7 hPa East 29.8 km/h 29.8 km/h 26 % 0 mm 817.0 W/m2 CLR
16:03 -0.2 °C -12.3 °C 34418.7 hPa South 23.3 km/h 23.3 km/h 26 % 0 mm 810.0 W/m2 CLR
16:08 -0.4 °C -12.6 °C 34418.7 hPa SE 29.8 km/h 29.8 km/h 26 % 0 mm 802.0 W/m2 CLR
16:13 -0.5 °C -12.3 °C 34418.7 hPa ENE 17.9 km/h 17.9 km/h 27 % 0 mm 796.0 W/m2 CLR
16:18 -0.4 °C -12.6 °C 34418.7 hPa East 29.8 km/h 29.8 km/h 26 % 0 mm 786.0 W/m2 CLR
16:23 -0.3 °C -12.4 °C 34405.1 hPa ESE 33.6 km/h 33.6 km/h 26 % 0 mm 777.0 W/m2 CLR
16:28 -0.4 °C -12.6 °C 34405.1 hPa East 23.8 km/h 23.8 km/h 26 % 0 mm 770.0 W/m2 CLR
16:33 -0.5 °C -12.6 °C 34405.1 hPa SE 38.8 km/h 38.8 km/h 26 % 0 mm 758.0 W/m2 CLR
16:38 -0.5 °C -12.6 °C 34405.1 hPa SE 32.8 km/h 32.8 km/h 26 % 0 mm 742.0 W/m2 CLR
16:43 -0.5 °C -12.6 °C 34405.1 hPa ESE 23.8 km/h 23.8 km/h 26 % 0 mm 729.0 W/m2 CLR
16:48 -0.6 °C -12.7 °C 34405.1 hPa ESE 29.8 km/h 29.8 km/h 26 % 0 mm 719.0 W/m2 CLR
16:53 -0.6 °C -12.7 °C 34405.1 hPa ESE 32.8 km/h 32.8 km/h 26 % 0 mm 708.0 W/m2 CLR
16:58 -0.7 °C -12.8 °C 34405.1 hPa SE 35.7 km/h 35.7 km/h 26 % 0 mm 694.0 W/m2 CLR
17:03 -0.7 °C -12.7 °C 34405.1 hPa SE 35.7 km/h 35.7 km/h 26 % 0 mm 682.0 W/m2 CLR
17:08 -0.9 °C -12.6 °C 34405.1 hPa SSE 29.8 km/h 29.8 km/h 27 % 0 mm 670.0 W/m2 CLR
17:13 -0.8 °C -12.3 °C 34395 hPa SE 17.9 km/h 17.9 km/h 28 % 0 mm 657.0 W/m2 CLR
17:18 -0.8 °C -12.3 °C 34405.1 hPa SE 47.6 km/h 47.6 km/h 28 % 0 mm 645.0 W/m2 CLR
17:23 -1 °C -12.1 °C 34395 hPa ESE 44.7 km/h 44.7 km/h 29 % 0 mm 631.0 W/m2 CLR
17:28 -0.9 °C -12.1 °C 34395 hPa SE 29.8 km/h 29.8 km/h 29 % 0 mm 619.0 W/m2 CLR
17:33 -0.9 °C -12.4 °C 34395 hPa ESE 47.6 km/h 47.6 km/h 28 % 0 mm 606.0 W/m2 CLR
17:38 -0.9 °C -12.3 °C 34395 hPa SE 41.7 km/h 41.7 km/h 28 % 0 mm 592.0 W/m2 CLR
17:43 -0.9 °C -12.3 °C 34395 hPa ESE 28.5 km/h 28.5 km/h 28 % 0 mm 578.0 W/m2 CLR
17:48 -0.9 °C -12.6 °C 34395 hPa ESE 35.7 km/h 35.7 km/h 27 % 0 mm 566.0 W/m2 CLR
17:53 -0.9 °C -12.6 °C 34395 hPa ESE 31.1 km/h 31.1 km/h 27 % 0 mm 550.0 W/m2 CLR
17:58 -0.9 °C -12.7 °C 34395 hPa East 29.8 km/h 29.8 km/h 27 % 0 mm 536.0 W/m2 CLR
18:03 -0.9 °C -12.9 °C 34395 hPa SE 29.8 km/h 29.8 km/h 26 % 0 mm 519.0 W/m2 CLR
18:08 -0.9 °C -12.7 °C 34395 hPa East 31.1 km/h 31.1 km/h 27 % 0 mm 504.0 W/m2 CLR
18:13 -0.9 °C -12.9 °C 34395 hPa East 29.8 km/h 29.8 km/h 26 % 0 mm 489.0 W/m2 CLR
18:18 -1.1 °C -13.1 °C 34395 hPa SE 29.8 km/h 29.8 km/h 26 % 0 mm 473.0 W/m2 CLR
18:23 -1.1 °C -13.1 °C 34395 hPa SE 32.8 km/h 32.8 km/h 26 % 0 mm 461.0 W/m2 CLR
18:28 -1.1 °C -13.1 °C 34395 hPa ESE 33.6 km/h 33.6 km/h 26 % 0 mm 445.0 W/m2 CLR
18:33 -1.2 °C -13.5 °C 34395 hPa SE 35.7 km/h 35.7 km/h 25 % 0 mm 429.0 W/m2 CLR
18:38 -1.2 °C -13.5 °C 34395 hPa ESE 32.8 km/h 32.8 km/h 25 % 0 mm 415.0 W/m2 CLR
18:43 -1.2 °C -13.6 °C 34395 hPa ESE 38.8 km/h 38.8 km/h 25 % 0 mm 401.0 W/m2 CLR
18:48 -1.3 °C -13.6 °C 34395 hPa ESE 29.8 km/h 29.8 km/h 25 % 0 mm 383.0 W/m2 CLR
18:53 -1.3 °C -13.6 °C 34395 hPa ESE 29.8 km/h 29.8 km/h 25 % 0 mm 367.0 W/m2 CLR
18:58 -1.3 °C -13.9 °C 34395 hPa SE 29.8 km/h 29.8 km/h 24 % 0 mm 353.0 W/m2 CLR
19:03 -1.3 °C -13.6 °C 34395 hPa SE 33.6 km/h 33.6 km/h 25 % 0 mm 338.0 W/m2 CLR
19:08 -1.4 °C -13.7 °C 34395 hPa ESE 29.8 km/h 29.8 km/h 25 % 0 mm 322.0 W/m2 CLR
19:13 -1.4 °C -13.7 °C 34395 hPa SE 32.8 km/h 32.8 km/h 25 % 0 mm 304.0 W/m2 CLR
19:18 -1.5 °C -13.7 °C 34395 hPa SE 32.8 km/h 32.8 km/h 25 % 0 mm 290.0 W/m2 CLR
19:20 -1.5 °C -13.4 °C 34395 hPa ESE 29.8 km/h 29.8 km/h 26 % 0 mm 287.0 W/m2 CLR
19:25 -1.6 °C -13.5 °C 34395 hPa SSE 32.8 km/h 32.8 km/h 26 % 0 mm 267.0 W/m2 CLR
19:30 -1.6 °C -13.5 °C 34395 hPa SE 29.8 km/h 29.8 km/h 26 % 0 mm 253.0 W/m2 CLR
19:35 -1.6 °C -13.6 °C 34395 hPa SSE 38.8 km/h 38.8 km/h 26 % 0 mm 237.0 W/m2 CLR
19:40 -1.7 °C -13.6 °C 34395 hPa SSE 35.7 km/h 35.7 km/h 26 % 0 mm 223.0 W/m2 CLR
19:45 -1.7 °C -13.7 °C 34395 hPa SSE 29.8 km/h 29.8 km/h 26 % 0 mm 202.0 W/m2 CLR
19:50 -1.8 °C -13.7 °C 34395 hPa SE 20.8 km/h 20.8 km/h 26 % 0 mm 185.0 W/m2 CLR
19:55 -1.8 °C -13.4 °C 34395 hPa SE 26.9 km/h 26.9 km/h 27 % 0 mm 169.0 W/m2 CLR
20:00 -1.8 °C -13.4 °C 34395 hPa SE 32.8 km/h 32.8 km/h 27 % 0 mm 151.0 W/m2 CLR
20:05 -1.9 °C -13.8 °C 34395 hPa SSE 28.5 km/h 28.5 km/h 26 % 0 mm 135.0 W/m2 CLR
20:10 -1.9 °C -13.8 °C 34395 hPa SE 23.8 km/h 23.8 km/h 26 % 0 mm 116.0 W/m2 CLR
20:15 -1.9 °C -14.1 °C 34395 hPa SE 17.9 km/h 17.9 km/h 25 % 0 mm 102.0 W/m2 CLR
20:17 -2 °C -14.2 °C 34395 hPa SE 23.8 km/h 23.8 km/h 25 % 0 mm 97.0 W/m2 CLR
20:22 -2 °C -14.2 °C 34395 hPa SE 20.9 km/h 20.9 km/h 25 % 0 mm 83.0 W/m2 FEW
20:27 -2.1 °C -14.2 °C 34395 hPa SE 18.2 km/h 18.2 km/h 25 % 0 mm 67.0 W/m2 FEW
20:32 -2.1 °C -13.9 °C 34395 hPa SSE 17.9 km/h 17.9 km/h 26 % 0 mm 56.0 W/m2 SCT
20:37 -2.1 °C -13.1 °C 34395 hPa SSW 23.8 km/h 23.8 km/h 29 % 0 mm 42.0 W/m2 BKN
20:42 -2.3 °C -12.9 °C 34395 hPa SSW 29.8 km/h 29.8 km/h 30 % 0 mm 33.0 W/m2 BKN
20:47 -2.4 °C -12.8 °C 34395 hPa South 26.9 km/h 26.9 km/h 31 % 0 mm 25.0 W/m2 BKN
20:52 -2.6 °C -12.9 °C 34405.1 hPa South 29.8 km/h 29.8 km/h 31 % 0 mm 18.0 W/m2 BKN
20:57 -2.7 °C -12.8 °C 34395 hPa South 9 km/h 9 km/h 32 % 0 mm 14.0 W/m2 BKN
21:02 -2.8 °C -12.9 °C 34405.1 hPa South 17.9 km/h 17.9 km/h 32 % 0 mm 12.0 W/m2 BKN
21:07 -2.9 °C -12.9 °C 34405.1 hPa South 9 km/h 9 km/h 32 % 0 mm 11.0 W/m2 BKN
21:12 -3 °C -12.8 °C 34405.1 hPa South 15.6 km/h 15.6 km/h 33 % 0 mm 7.0 W/m2 BKN
21:17 -3.1 °C -12.9 °C 34405.1 hPa South 11.9 km/h 11.9 km/h 33 % 0 mm 5.0 W/m2 OVC
21:22 -3.2 °C -12.7 °C 34405.1 hPa SSW 15 km/h 15 km/h 34 % 0 mm 0.0 W/m2 OVC
21:27 -3.3 °C -12.6 °C 34405.1 hPa South 23.8 km/h 23.8 km/h 35 % 0 mm 0.0 W/m2 OVC
21:32 -3.4 °C -12.7 °C 34395 hPa SSW 20.9 km/h 20.9 km/h 35 % 0 mm 0.0 W/m2 CLR
21:37 -3.5 °C -12.5 °C 34395 hPa SSW 15 km/h 15 km/h 36 % 0 mm 0.0 W/m2 CLR
21:42 -3.6 °C -12.6 °C 34395 hPa SSW 18.2 km/h 18.2 km/h 36 % 0 mm 0.0 W/m2 CLR
21:47 -3.7 °C -12.7 °C 34395 hPa SSW 20.9 km/h 20.9 km/h 36 % 0 mm 0.0 W/m2 CLR
21:52 -3.8 °C -12.5 °C 34405.1 hPa SSW 29.8 km/h 29.8 km/h 37 % 0 mm 0.0 W/m2 CLR
21:57 -3.8 °C -12.8 °C 34405.1 hPa SSW 29.8 km/h 29.8 km/h 36 % 0 mm 0.0 W/m2 CLR
22:02 -3.8 °C -13 °C 34405.1 hPa South 32.8 km/h 32.8 km/h 35 % 0 mm 0.0 W/m2 CLR
22:07 -3.8 °C -12.8 °C 34405.1 hPa SSW 23.8 km/h 23.8 km/h 36 % 0 mm 0.0 W/m2 CLR
22:12 -3.8 °C -12.8 °C 34405.1 hPa SSW 23.8 km/h 23.8 km/h 36 % 0 mm 0.0 W/m2 CLR
22:17 -3.9 °C -12.9 °C 34405.1 hPa SSW 15 km/h 15 km/h 36 % 0 mm 0.0 W/m2 CLR
22:22 -4 °C -12.9 °C 34418.7 hPa SW 9 km/h   36 % 0 mm 0.0 W/m2 CLR
22:32 -4.3 °C -12.8 °C 34418.7 hPa Calm     38 % 0 mm 0.0 W/m2 CLR
22:37 -4.4 °C -12.9 °C 34418.7 hPa Calm     38 % 0 mm 0.0 W/m2 CLR
22:42 -4.6 °C -12.9 °C 34418.7 hPa Calm     38 % 0 mm 0.0 W/m2 CLR
22:47 -4.7 °C -12.9 °C 34418.7 hPa WSW 6 km/h   39 % 0 mm 0.0 W/m2 CLR
22:52 -4.7 °C -12.9 °C 34418.7 hPa Calm     39 % 0 mm 0.0 W/m2 CLR
22:57 -4.8 °C -12.8 °C 34418.7 hPa Calm     40 % 0 mm 0.0 W/m2 CLR
23:02 -4.9 °C -12.8 °C 34418.7 hPa Calm     40 % 0 mm 0.0 W/m2 CLR
23:07 -5 °C -12.9 °C 34418.7 hPa Calm     40 % 0 mm 0.0 W/m2 CLR
23:12 -5.1 °C -12.9 °C 34418.7 hPa Calm     41 % 0 mm 0.0 W/m2 CLR
23:17 -5.2 °C -13 °C 34418.7 hPa Calm     41 % 0 mm 0.0 W/m2 CLR
23:22 -5.4 °C -12.9 °C 34418.7 hPa Calm     42 % 0 mm 0.0 W/m2 CLR
23:27 -5.5 °C -13 °C 34418.7 hPa Calm     42 % 0 mm 0.0 W/m2 CLR
23:32 -5.6 °C -12.9 °C 34418.7 hPa Calm     43 % 0 mm 0.0 W/m2 CLR
23:37 -5.7 °C -12.8 °C 34418.7 hPa Calm     44 % 0 mm 0.0 W/m2 CLR
23:42 -5.8 °C -12.9 °C 34418.7 hPa Calm     44 % 0 mm 0.0 W/m2 CLR
23:47 -5.9 °C -12.8 °C 34418.7 hPa Calm     45 % 0 mm 0.0 W/m2 CLR
23:52 -6 °C -12.7 °C 34418.7 hPa Calm     46 % 0 mm 0.0 W/m2 CLR
23:57 -6.2 °C -12.9 °C 34418.7 hPa ENE 9 km/h 9 km/h 46 % 0 mm 0.0 W/m2 CLR
Lo Temps de Massalio
Compliments of Weather Underground - 1.25 mb